DW0805 Weather Reports


Display with metric or nautical units.
time (UTC)temp
F
wind
direction
speed
MPH
gust
MPH
rain 1hr
in
rain 24hr
in
rain mn
in
humidity
%
barometer
mb
20260905043516 59 273 11.0 23.0 0.00 0.39 0.00 85 1003.5
20260905042515 59 265 13.0 21.0 0.00 0.39 0.00 85 1003.5
20260905040515 59 261 14.0 26.0 0.00 0.39 0.00 85 1003.3
20260905033515 59 248 12.0 18.0 0.00 0.39 0.00 85 1003.0
20260905031515 59 268 13.0 25.0 0.00 0.39 0.00 85 1003.0
20260905030515 59 249 14.0 20.0 0.00 0.39 0.00 84 1002.9
20260905024515 59 281 14.0 28.0 0.00 0.39 0.00 84 1002.7
20260905021515 59 288 15.0 26.0 0.00 0.39 0.00 84 1002.3
20260905015515 59 268 17.0 28.0 0.00 0.39 0.00 85 1002.1
20260905014515 59 270 17.0 25.0 0.00 0.39 0.00 86 1001.8
20260905013515 59 260 21.0 25.0 0.00 0.39 0.00 86 1001.7
20260905012515 59 275 14.0 26.0 0.00 0.39 0.00 86 1001.6
20260905011515 59 281 15.0 22.0 0.00 0.39 0.00 86 1001.6
20260905010515 59 268 13.0 20.0 0.00 0.39 0.00 87 1001.5
20260905005516 59 286 13.0 23.0 0.00 0.39 0.00 87 1001.5
20260905002515 59 273 17.0 25.0 0.00 0.39 0.00 86 1001.2
20260905001515 59 276 17.0 26.0 0.00 0.39 0.00 87 1001.0
20260905000515 59 249 16.0 24.0 0.00 0.39 0.00 87 1000.9
20260904235515 59 257 13.0 22.0 0.00 0.39 0.00 88 1000.9
20260904232515 59 273 14.0 24.0 0.00 0.39 0.00 87 1000.9
20260904231515 59 280 13.0 20.0 0.00 0.39 0.00 87 1000.8
20260904225515 59 272 13.0 24.0 0.00 0.39 0.00 86 1000.8
20260904224516 59 268 14.0 24.0 0.00 0.39 0.00 86 1000.7
20260904222516 59 276 22.0 28.0 0.00 0.39 0.00 86 1000.7
20260904221510 59 261 14.0 26.0 0.00 0.39 0.00 86 1000.6
20260904220515 59 267 15.0 26.0 0.00 0.39 0.00 87 1000.5
20260904213515 59 258 14.0 23.0 0.00 0.39 0.39 87 1000.3
20260904212515 58 275 16.0 25.0 0.00 0.40 0.39 87 1000.3
20260904211516 58 252 18.0 25.0 0.00 0.40 0.39 88 1000.1
20260904210516 58 260 17.0 25.0 0.00 0.40 0.39 88 1000.1
20260904203516 58 253 12.0 23.0 0.00 0.40 0.39 91 999.7
20260904202515 58 283 20.0 24.0 0.00 0.40 0.39 91 999.7
20260904200514 58 262 16.0 23.0 0.00 0.40 0.39 94 999.5
20260904193515 57 318 9.0 16.0 0.06 0.40 0.39 94 999.2
20260904191517 57 259 9.0 16.0 0.06 0.40 0.39 94 999.1
20260904190514 57 269 9.0 15.0 0.07 0.40 0.39 94 998.8
20260904184515 58 255 10.0 15.0 0.05 0.36 0.35 94 998.9
20260904175515 59 237 9.0 14.0 0.00 0.31 0.31 92 998.5
20260904173515 60 235 6.0 12.0 0.00 0.31 0.31 92 998.5
20260904170515 60 234 5.0 9.0 0.00 0.31 0.31 92 998.5
20260904165516 60 240 6.0 10.0 0.00 0.31 0.31 92 998.3
20260904163516 61 295 7.0 13.0 0.00 0.31 0.31 92 998.4
20260904161515 61 311 7.0 10.0 0.00 0.31 0.31 92 998.7
20260904160515 61 322 7.0 12.0 0.00 0.31 0.31 92 998.4
20260904154516 61 240 6.0 13.0 0.00 0.31 0.31 93 998.6
20260904153516 61 249 7.0 13.0 0.00 0.31 0.31 93 998.6
20260904145515 61 260 9.0 16.0 0.00 0.31 0.31 94 998.7
20260904144516 61 326 7.0 14.0 0.00 0.31 0.31 94 998.7
20260904143515 61 252 7.0 13.0 0.00 0.31 0.31 95 998.8
20260904141516 61 238 6.0 10.0 0.02 0.32 0.31 95 998.7
20260904133515 58 315 6.0 10.0 0.13 0.32 0.31 95 999.1
20260904132516 58 321 7.0 12.0 0.14 0.31 0.30 95 999.1
20260904131516 58 0 9.0 15.0 0.13 0.30 0.28 95 999.2
20260904124515 59 293 5.0 9.0 0.09 0.21 0.20 95 999.3
20260904123516 60 321 7.0 10.0 0.09 0.20 0.18 94 999.3
20260904121515 60 241 5.0 10.0 0.08 0.17 0.15 94 999.8
20260904115515 60 295 9.0 15.0 0.06 0.13 0.12 94 1000.0
20260904114516 61 220 7.0 14.0 0.05 0.12 0.10 94 1000.1
20260904113515 61 241 7.0 16.0 0.04 0.10 0.09 94 1000.2
20260904112515 61 224 6.0 13.0 0.03 0.09 0.08 94 1000.1
20260904110516 61 216 7.0 15.0 0.02 0.09 0.06 94 1000.1
20260904105515 61 221 9.0 14.0 0.02 0.08 0.06 94 1000.3
20260904104516 61 235 9.0 15.0 0.02 0.08 0.06 94 1000.3
20260904103525 61 204 10.0 16.0 0.02 0.07 0.05 94 1000.5
20260904101526 61 290 9.0 16.0 0.02 0.06 0.04 93 1000.8
20260904094526 61 223 10.0 16.0 0.02 0.06 0.03 93 1001.2
20260904084526 61 206 12.0 16.0 0.00 0.08 0.01 91 1002.3
20260904082514 61 198 12.0 16.0 0.00 0.09 0.01 90 1002.5
20260904081514 61 288 8.0 16.0 0.00 0.09 0.01 90 1002.6
20260904080515 61 298 9.0 15.0 0.00 0.09 0.01 90 1002.7
20260904071515 60 231 3.0 6.0 0.01 0.13 0.01 92 1003.1
20260904070514 60 224 3.0 7.0 0.01 0.13 0.01 92 1003.3
20260904064515 59 238 3.0 9.0 0.01 0.13 0.01 92 1003.6
20260904063515 59 240 5.0 8.0 0.01 0.13 0.01 91 1003.7
20260904061514 59 316 6.0 12.0 0.00 0.12 0.00 91 1004.0
20260904060515 59 295 9.0 13.0 0.00 0.12 0.00 90 1004.0
20260904051514 60 241 8.0 13.0 0.00 0.12 0.00 87 1004.5